Location: *
(34.6903°N, 135.5184°E)
Time: 17:47:33
(UTC+00:00)

USA 215 - Pass Details

Date: 22 September 2019
Orbit: 1102 x 1106 km, 123.0° (Epoch: 14 September)

Event Time Altitude Azimuth Distance (km) Brightness Sun altitude
Rises 19:12:08 0° 44° (NE) 3,922 7.1 -19.9°
Reaches altitude 10° 19:14:38 10° 46° (NE) 2,961 6.4 -19.4°
Maximum altitude 19:21:11 77° 132° (SE) 1,130 3.3 -18.1°
Enters shadow 19:26:49 15° 217° (SW) 2,614 4.8 -17.0°
